KLM39K EHAM-LIML

Flight info

Callsign KLM39K
Flight time N/A
Altitude 35000
Route EDUPO Z739 MISGO DCT ASBON DCT TUSUK DCT KRH DCT NATOR DCT TRA DCT RIPUS DCT GERSA DCT SOSON DCT ODINA
Aircraft A21N/M-SDE3FGHIRWY/LB1

Departure

Time 2026-05-04 18:07
Airport Amsterdam Airport Schiphol (EHAM)

Arrival

Time N/A
Airport Milano Linate Airport (LIML)
Time Latitude Longitude Altitude Speed Heading
2026-05-04 17:50 52.30899 4.77176 0 ft 0 kts
2026-05-04 17:56 52.30888 4.77175 0 ft 2 kts
2026-05-04 17:56 52.30873 4.77174 0 ft 2 kts
2026-05-04 17:56 52.30858 4.77171 0 ft 2 kts 29°
2026-05-04 17:56 52.30847 4.77153 0 ft 2 kts 69°
2026-05-04 17:57 52.30845 4.77139 0 ft 0 kts 92°
2026-05-04 17:57 52.30846 4.77126 0 ft 0 kts 95°
2026-05-04 18:00 52.30845 4.77144 0 ft 4 kts 94°
2026-05-04 18:00 52.30842 4.77240 0 ft 12 kts 92°
2026-05-04 18:00 52.30838 4.77413 0 ft 18 kts 92°
2026-05-04 18:00 52.30807 4.77463 0 ft 12 kts 173°
2026-05-04 18:01 52.30711 4.77455 0 ft 14 kts 183°
2026-05-04 18:01 52.30625 4.77383 0 ft 15 kts 236°
2026-05-04 18:01 52.30566 4.77227 0 ft 16 kts 239°
2026-05-04 18:02 52.30433 4.76882 0 ft 18 kts 238°
2026-05-04 18:02 52.30365 4.76702 0 ft 19 kts 239°
2026-05-04 18:02 52.30293 4.76513 0 ft 20 kts 237°
2026-05-04 18:02 52.30215 4.76313 0 ft 21 kts 238°
2026-05-04 18:03 52.30138 4.76110 0 ft 21 kts 238°
2026-05-04 18:03 52.30056 4.75898 0 ft 22 kts 238°
2026-05-04 18:03 52.29973 4.75682 0 ft 22 kts 238°
2026-05-04 18:03 52.29889 4.75460 0 ft 23 kts 238°
2026-05-04 18:04 52.29857 4.75378 0 ft 0 kts 239°
2026-05-04 18:04 52.29833 4.75305 0 ft 13 kts 255°
2026-05-04 18:04 52.30019 4.74869 0 ft 28 kts 312°
2026-05-04 18:05 52.30145 4.74631 0 ft 26 kts 310°
2026-05-04 18:05 52.30264 4.74412 0 ft 25 kts 312°
2026-05-04 18:05 52.30371 4.74214 0 ft 18 kts 313°
2026-05-04 18:05 52.30423 4.74035 0 ft 17 kts 254°
2026-05-04 18:06 52.30460 4.73754 0 ft 12 kts
2026-05-04 18:06 52.30756 4.73786 0 ft 82 kts
2026-05-04 18:06 52.31581 4.73853 0 ft 150 kts
2026-05-04 18:07 52.32707 4.73953 453 ft 167 kts
2026-05-04 18:07 52.33821 4.74258 1277 ft 165 kts 19°
2026-05-04 18:07 52.34881 4.74920 2074 ft 167 kts 23°
2026-05-04 18:07 52.36002 4.75682 2587 ft 182 kts 23°
2026-05-04 18:08 52.37208 4.76548 3078 ft 199 kts 28°
2026-05-04 18:08 52.38381 4.77893 3552 ft 218 kts 41°
2026-05-04 18:08 52.39541 4.79750 3971 ft 242 kts 45°
2026-05-04 18:08 52.40736 4.81791 4613 ft 257 kts 46°
2026-05-04 18:09 52.42410 4.86961 6283 ft 273 kts 84°
2026-05-04 18:09 52.42424 4.93281 8014 ft 282 kts 90°
2026-05-04 18:10 52.42363 4.96479 8829 ft 286 kts 98°
2026-05-04 18:10 52.41631 4.99513 9620 ft 291 kts 127°
2026-05-04 18:10 52.40137 5.01738 10418 ft 294 kts 146°
2026-05-04 18:10 52.38427 5.03632 10923 ft 309 kts 147°
2026-05-04 18:11 52.36570 5.05693 11294 ft 327 kts 146°
2026-05-04 18:11 52.34695 5.07896 11728 ft 343 kts 143°
2026-05-04 18:11 52.32859 5.10491 12418 ft 350 kts 137°
2026-05-04 18:11 52.31168 5.13360 13214 ft 354 kts 133°
2026-05-04 18:12 52.29518 5.16352 13957 ft 358 kts 132°
2026-05-04 18:12 52.27866 5.19379 14665 ft 362 kts 132°
2026-05-04 18:12 52.26203 5.22419 15414 ft 364 kts 132°
2026-05-04 18:12 52.24541 5.25582 16142 ft 367 kts 129°
2026-05-04 18:13 52.23017 5.28881 16856 ft 370 kts 126°
2026-05-04 18:13 52.21522 5.32321 17521 ft 373 kts 126°
2026-05-04 18:13 52.18511 5.39271 18760 ft 380 kts 126°
2026-05-04 18:14 52.16973 5.42809 19379 ft 384 kts 126°
2026-05-04 18:14 52.15447 5.46314 19957 ft 388 kts 126°
2026-05-04 18:14 52.13882 5.49909 20523 ft 392 kts 126°
2026-05-04 18:15 52.10713 5.57158 21628 ft 398 kts 126°
2026-05-04 18:15 52.07258 5.64243 22675 ft 403 kts 139°
2026-05-04 18:15 52.05129 5.67159 23246 ft 404 kts 143°
2026-05-04 18:16 52.02914 5.70031 23784 ft 407 kts 143°
2026-05-04 18:16 52.00738 5.72868 24300 ft 409 kts 143°
2026-05-04 18:16 51.98529 5.75794 24820 ft 411 kts 143°
2026-05-04 18:17 51.94117 5.81731 25808 ft 415 kts 143°
2026-05-04 18:17 51.91891 5.84745 26269 ft 418 kts 143°
2026-05-04 18:17 51.87448 5.90766 27116 ft 422 kts 143°
2026-05-04 18:18 51.85202 5.93812 27541 ft 424 kts 143°
2026-05-04 18:18 51.82937 5.96880 27955 ft 426 kts 143°
2026-05-04 18:18 51.80670 5.99946 28353 ft 427 kts 144°
2026-05-04 18:18 51.78383 6.03039 28722 ft 430 kts 144°
2026-05-04 18:19 51.73793 6.09234 29467 ft 433 kts 144°
2026-05-04 18:19 51.71497 6.12323 29816 ft 434 kts 144°
2026-05-04 18:19 51.69182 6.15438 30244 ft 434 kts 144°
2026-05-04 18:20 51.66865 6.18555 30728 ft 432 kts 145°
2026-05-04 18:20 51.64589 6.21613 30938 ft 431 kts 145°
2026-05-04 18:20 51.59999 6.27753 30935 ft 430 kts 145°
2026-05-04 18:21 51.55378 6.33914 31073 ft 434 kts 145°
2026-05-04 18:21 51.53090 6.36962 31536 ft 432 kts 145°
2026-05-04 18:21 51.50777 6.40045 32053 ft 428 kts 146°
2026-05-04 18:22 51.48497 6.43079 32507 ft 426 kts 146°
2026-05-04 18:22 51.46225 6.46094 32900 ft 424 kts 146°
2026-05-04 18:22 51.43984 6.49066 33237 ft 424 kts 146°
2026-05-04 18:22 51.41711 6.52076 33534 ft 424 kts 146°
2026-05-04 18:23 51.39439 6.55076 33791 ft 426 kts 146°
2026-05-04 18:23 51.37141 6.58106 34029 ft 427 kts 146°
2026-05-04 18:23 51.34845 6.61134 34289 ft 427 kts 146°
2026-05-04 18:23 51.32583 6.64111 34508 ft 428 kts 146°
2026-05-04 18:24 51.30260 6.67163 34718 ft 430 kts 147°
2026-05-04 18:24 51.27955 6.70189 34913 ft 431 kts 147°
2026-05-04 18:24 51.23325 6.76255 34944 ft 431 kts 147°
2026-05-04 18:25 51.18714 6.82278 34946 ft 431 kts 147°
2026-05-04 18:25 51.14090 6.88306 34946 ft 431 kts 147°
2026-05-04 18:26 51.09459 6.94322 34943 ft 431 kts 147°
2026-05-04 18:26 51.04831 7.00320 34942 ft 430 kts 147°
2026-05-04 18:27 51.00183 7.06331 34944 ft 432 kts 147°
2026-05-04 18:27 50.95556 7.12295 34950 ft 432 kts 147°
2026-05-04 18:28 50.90426 7.17093 34950 ft 424 kts 159°
2026-05-04 18:28 50.85120 7.21145 34950 ft 424 kts 160°
2026-05-04 18:29 50.79821 7.25191 34946 ft 425 kts 159°
2026-05-04 18:29 50.74488 7.29275 34952 ft 425 kts 159°
2026-05-04 18:30 50.66570 7.35339 34945 ft 424 kts 159°
2026-05-04 18:31 50.61253 7.39404 34949 ft 424 kts 159°
2026-05-04 18:31 50.55951 7.43446 34946 ft 425 kts 159°
2026-05-04 18:32 50.50661 7.47469 34943 ft 425 kts 159°
2026-05-04 18:32 50.45359 7.51492 34944 ft 424 kts 159°
2026-05-04 18:33 50.40062 7.55500 34942 ft 425 kts 159°
2026-05-04 18:33 50.34728 7.59527 34948 ft 425 kts 159°
2026-05-04 18:34 50.29411 7.63533 34942 ft 425 kts 159°
2026-05-04 18:34 50.24082 7.67536 34948 ft 425 kts 160°
2026-05-04 18:35 50.18767 7.71518 34939 ft 426 kts 160°
2026-05-04 18:35 50.13429 7.75507 34943 ft 425 kts 160°
2026-05-04 18:36 50.08109 7.79473 34945 ft 424 kts 160°
2026-05-04 18:36 50.02805 7.83419 34935 ft 424 kts 159°
2026-05-04 18:37 49.97476 7.87372 34943 ft 424 kts 159°
2026-05-04 18:37 49.92128 7.91327 34944 ft 426 kts 159°
2026-05-04 18:38 49.86767 7.95289 34950 ft 427 kts 159°
2026-05-04 18:38 49.81429 7.99223 34950 ft 427 kts 159°
2026-05-04 18:39 49.76064 8.03163 34961 ft 427 kts 159°
2026-05-04 18:39 49.70721 8.07078 34960 ft 427 kts 159°
2026-05-04 18:40 49.65398 8.10966 34964 ft 426 kts 159°
2026-05-04 18:40 49.60012 8.14894 34960 ft 426 kts 159°
2026-05-04 18:41 49.54678 8.18774 34967 ft 426 kts 159°
2026-05-04 18:41 49.49347 8.22642 34963 ft 426 kts 159°
2026-05-04 18:42 49.43969 8.26536 34958 ft 426 kts 159°
2026-05-04 18:42 49.38582 8.30426 34961 ft 426 kts 159°
2026-05-04 18:43 49.33228 8.34284 34957 ft 427 kts 159°
2026-05-04 18:43 49.27847 8.38150 34956 ft 427 kts 159°
2026-05-04 18:44 49.22492 8.41988 34955 ft 427 kts 158°
2026-05-04 18:44 49.17114 8.45833 34952 ft 428 kts 158°
2026-05-04 18:45 49.11743 8.49666 34951 ft 428 kts 158°
2026-05-04 18:45 49.06359 8.53390 34946 ft 426 kts 162°
2026-05-04 18:46 49.00682 8.55740 34953 ft 421 kts 173°
2026-05-04 18:46 48.94910 8.56312 34955 ft 417 kts 184°
2026-05-04 18:47 48.89153 8.55169 34962 ft 415 kts 192°
2026-05-04 18:47 48.83532 8.53366 34967 ft 415 kts 193°
2026-05-04 18:48 48.77861 8.51533 34970 ft 415 kts 193°
2026-05-04 18:48 48.72243 8.49724 34972 ft 415 kts 193°
2026-05-04 18:49 48.66580 8.47910 34972 ft 416 kts 193°
2026-05-04 18:49 48.60909 8.46095 34969 ft 418 kts 193°
2026-05-04 18:50 48.55239 8.44286 34971 ft 417 kts 193°
2026-05-04 18:50 48.49578 8.42482 34973 ft 417 kts 193°
2026-05-04 18:51 48.43900 8.40676 34978 ft 417 kts 193°
2026-05-04 18:51 48.38237 8.38880 34980 ft 417 kts 193°
2026-05-04 18:52 48.32567 8.37080 34982 ft 416 kts 193°
2026-05-04 18:52 48.26901 8.35292 34983 ft 416 kts 193°
2026-05-04 18:53 48.21202 8.33919 34983 ft 418 kts 187°
2026-05-04 18:53 48.15374 8.33502 34985 ft 420 kts 181°
2026-05-04 18:54 48.09554 8.34068 34983 ft 423 kts 175°
2026-05-04 18:54 48.03703 8.35429 34988 ft 424 kts 173°
2026-05-04 18:55 47.97890 8.36817 34981 ft 425 kts 173°
2026-05-04 18:55 47.89134 8.38913 34980 ft 426 kts 173°
2026-05-04 18:56 47.83322 8.40306 34980 ft 426 kts 173°
2026-05-04 18:56 47.77472 8.41709 34976 ft 426 kts 173°
2026-05-04 18:57 47.71645 8.43098 34992 ft 425 kts 173°
2026-05-04 18:57 47.65799 8.44196 34986 ft 425 kts 176°
2026-05-04 18:58 47.59920 8.45072 34978 ft 426 kts 176°
2026-05-04 18:58 47.54023 8.45948 34991 ft 428 kts 176°
2026-05-04 18:59 47.48110 8.46819 34983 ft 427 kts 176°
2026-05-04 18:59 47.42177 8.47691 34984 ft 428 kts 177°
2026-05-04 19:00 47.36241 8.48555 34990 ft 428 kts 176°
2026-05-04 19:00 47.30319 8.49418 34994 ft 428 kts 177°
2026-05-04 19:01 47.24410 8.50280 34995 ft 428 kts 177°
2026-05-04 19:01 47.18462 8.51148 35005 ft 429 kts 176°
2026-05-04 19:02 47.12526 8.52012 34995 ft 431 kts 177°
2026-05-04 19:02 47.06530 8.52879 35011 ft 431 kts 177°
2026-05-04 19:03 47.00562 8.53747 35011 ft 431 kts 176°
2026-05-04 19:03 46.94598 8.54612 35018 ft 432 kts 177°
2026-05-04 19:04 46.88621 8.55474 34800 ft 431 kts 177°